Dewpoint
70 70 71 74 74 74 73 73 72 72 72 72 73 73 73 73 73 73 73 73 73 73 73 73 72 72 71 71 71 71 71 71 71 71 70 70 70 70 69 68 69 69 69 69 69 70 70 70 70 70 69 69 69 69 69 68 68 68 67 68 68 68 69 69 69 69 69 68 66 66 66 66 66 65 66 66 66 66 65 65 64 61 63 65 65
70 71 71 72 73 73 73 73 72 72 72 72 72 72 72 73 73 72 72 73 73 72 72 72 71 71 71 71 71 71 71 71 71 71 71 70 70 69 69 69 69 68 68 68 68 68 68 68 68 69 70 70 69 68 68 68 67 67 67 67 68 67 68 68 68 67 67 67 67 67 66 66 66 66 66 65 64 64 64 64 63 60 62 65 63
69 71 72 72 74 74 73 73 72 73 72 72 72 72 72 72 72 72 72 72 71 72 72 71 71 71 71 71 71 71 71 71 71 71 70 70 70 69 69 68 68 68 67 68 68 68 68 68 68 69 69 68 68 68 68 68 68 68 67 67 67 67 67 67 67 67 66 67 67 66 66 65 66 66 66 66 65 63 62 63 63 63 61 64 62
69 71 71 73 74 73 73 72 72 73 73 72 72 72 72 72 72 72 72 71 72 72 72 71 72 72 72 72 72 72 72 71 71 70 70 70 70 69 69 68 68 68 68 68 68 67 67 67 67 68 68 68 68 67 68 68 68 68 68 68 67 67 68 68 68 67 68 68 67 65 65 64 64 65 65 65 65 65 65 65 65 65 65 65 64
69 71 71 73 72 73 73 73 73 72 73 73 72 72 72 72 72 72 72 72 72 72 72 72 72 72 72 72 72 72 72 71 71 70 70 70 69 69 69 69 69 69 68 68 68 68 68 68 68 68 68 68 68 67 67 68 68 68 68 68 68 67 67 67 67 67 67 67 66 65 62 62 63 66 66 65 65 65 65 65 65 65 65 66 64
70 71 71 73 72 72 73 73 72 73 73 72 72 72 72 72 72 72 72 72 72 72 72 72 71 71 71 72 72 71 71 71 71 70 70 70 70 70 69 69 69 69 69 69 69 68 68 68 68 68 68 68 68 68 68 68 68 68 68 68 67 67 67 67 67 67 66 66 65 63 61 62 61 61 64 64 63 64 64 63 64 64 64 64 64
71 71 71 71 72 72 73 72 72 73 72 72 72 72 72 72 72 72 72 72 72 72 72 72 72 72 72 71 71 71 71 71 71 70 70 70 70 70 69 69 69 69 69 68 68 69 68 68 68 68 67 67 68 68 68 68 68 68 67 67 67 68 67 66 66 66 66 65 64 62 62 62 61 61 64 65 66 66 65 65 65 65 65 65 64
72 71 71 71 72 73 73 72 72 72 72 72 72 72 72 72 72 72 73 73 72 72 72 72 72 71 71 71 71 71 71 71 71 71 71 71 71 70 70 69 69 69 68 68 68 68 67 68 68 68 68 69 69 68 68 68 67 67 68 69 68 66 66 66 65 65 65 61 63 64 63 62 63 62 64 64 64 63 64 64 64 63 64 64 64
70 71 71 71 72 73 73 72 72 72 72 72 72 72 72 72 72 72 73 72 72 72 72 72 72 71 71 71 71 71 71 70 71 71 70 70 70 70 70 69 69 69 69 68 68 68 68 68 68 68 69 69 68 68 69 68 68 69 69 69 69 69 69 67 65 64 64 62 62 63 62 62 62 62 65 64 65 65 64 64 64 64 64 64 64
70 71 71 71 72 73 73 72 72 72 72 72 72 72 72 72 72 72 72 72 72 71 71 71 72 72 71 71 70 70 70 70 70 70 70 70 70 70 70 70 69 69 69 69 68 69 68 68 68 69 70 69 69 69 69 69 69 69 69 69 68 68 68 68 66 64 62 62 61 63 64 63 60 60 64 64 62 62 62 63 64 64 65 66 65
70 71 71 71 72 73 72 73 73 72 72 72 72 72 72 72 72 72 72 71 72 71 71 71 71 71 72 71 71 71 71 70 70 70 71 70 70 70 69 69 69 69 69 69 69 69 68 68 69 70 70 69 69 69 69 69 69 69 68 68 68 68 68 68 66 61 61 60 63 65 63 63 62 62 63 63 65 64 65 66 65 63 63 64 64
70 71 72 72 73 72 72 72 72 72 72 72 72 72 72 72 71 72 72 71 71 71 71 71 72 71 71 71 71 70 70 70 70 70 70 69 69 69 69 69 69 69 69 69 69 69 69 69 70 69 69 69 69 69 69 68 68 67 67 67 67 68 67 68 63 62 61 60 62 64 62 60 63 62 65 65 62 65 65 64 64 64 64 65 63
69 70 71 72 71 72 72 72 72 72 72 72 72 72 72 71 72 72 72 71 71 71 71 71 72 72 72 71 70 70 70 70 70 70 70 70 70 69 69 69 69 69 69 69 70 70 69 69 69 69 69 69 69 69 68 67 67 67 67 68 68 67 67 67 63 62 61 62 63 63 63 65 64 64 64 64 64 64 64 65 64 64 64 64 63
70 70 71 71 71 73 72 72 72 72 72 72 72 72 72 72 72 72 72 72 72 71 71 72 72 72 71 71 70 71 71 71 71 70 70 70 70 69 70 69 69 69 69 69 69 69 69 69 69 68 68 69 68 68 68 67 66 67 68 69 68 67 68 66 67 62 62 62 64 62 63 65 63 66 64 64 64 63 63 63 64 64 64 64 64
69 70 71 71 71 72 73 72 72 72 72 72 72 72 72 72 72 72 72 72 72 72 72 72 72 71 71 71 71 71 71 70 70 70 70 70 70 70 70 69 69 69 70 69 69 69 69 69 69 68 68 68 68 68 67 67 67 68 69 69 68 67 66 63 62 62 61 62 62 61 62 64 66 67 64 63 63 63 63 64 63 64 64 65 64
71 71 71 71 71 72 71 72 72 72 72 72 72 73 72 72 72 72 72 72 72 71 72 71 71 71 71 71 71 71 71 70 70 70 70 70 70 70 70 70 69 70 69 69 69 69 69 69 68 68 67 67 67 67 67 67 68 68 69 69 69 66 65 66 64 63 62 63 64 63 62 64 68 67 64 64 64 63 63 65 64 63 63 63 64
70 71 71 70 71 70 71 71 72 73 72 72 72 72 72 72 72 72 72 72 72 71 71 71 71 71 72 72 72 71 71 71 70 70 70 70 70 70 70 70 69 69 69 69 69 69 69 68 68 67 67 67 67 67 68 68 69 69 69 69 69 66 66 65 62 63 62 62 62 61 62 61 66 67 65 64 64 63 63 63 63 63 63 63 63
70 70 69 71 71 70 71 71 71 72 72 73 73 72 72 72 72 72 72 72 72 71 71 71 71 71 71 71 71 71 71 71 71 70 70 70 70 70 69 69 69 69 69 69 70 69 68 67 67 67 67 67 67 67 67 68 68 68 68 68 68 68 66 65 65 63 62 63 62 62 62 67 67 67 64 64 63 63 63 63 62 63 63 63 64
70 69 69 70 69 71 70 71 71 70 71 72 71 72 72 72 72 72 72 71 71 71 71 71 71 71 71 71 71 71 71 70 70 70 70 70 69 70 69 69 70 70 69 69 69 69 68 68 67 67 67 67 68 67 68 68 68 67 67 68 68 68 67 65 63 62 63 64 64 63 64 66 68 65 64 64 63 63 63 62 62 62 63 63 63
69 69 68 69 69 69 70 70 70 70 71 73 72 72 72 72 72 71 71 71 71 71 71 71 71 71 71 71 71 71 70 70 70 70 70 70 70 69 69 69 69 70 69 70 69 69 68 68 68 68 68 68 67 67 67 68 67 66 67 68 68 68 67 65 63 62 62 62 64 64 66 67 67 65 65 64 63 63 63 62 63 62 62 63 63
68 67 69 70 69 69 69 69 70 70 70 71 71 71 71 72 72 71 71 72 71 71 71 71 71 71 70 71 71 70 70 70 70 70 69 70 70 69 69 69 69 69 69 69 69 69 69 68 68 68 68 68 67 67 67 66 66 65 66 67 68 68 67 65 65 64 63 62 63 62 66 66 66 65 64 64 63 62 62 62 62 62 62 63 64
66 67 68 69 69 69 69 68 70 69 69 71 71 71 71 71 70 71 70 71 71 71 70 70 70 70 71 70 70 69 70 70 70 68 71 69 68 68 67 68 68 68 68 69 69 69 69 69 68 68 68 67 67 65 65 65 65 65 65 64 65 65 67 66 66 64 63 63 63 65 66 66 65 64 65 64 63 63 62 62 62 62 63 64 63
65 66 68 67 68 68 69 69 68 69 69 70 70 71 70 71 71 71 70 70 70 70 69 69 69 69 69 68 70 70 69 69 70 70 70 69 69 68 68 68 68 67 67 68 69 69 69 69 69 68 68 66 66 65 62 61 62 63 63 65 66 65 66 66 66 65 63 63 62 66 66 66 65 65 64 64 64 62 62 61 62 62 63 63 63
64 65 67 67 68 68 68 68 67 70 70 69 69 69 70 70 70 68 69 70 70 70 70 70 69 69 69 71 70 69 69 70 68 69 68 70 69 68 67 67 66 66 67 67 68 68 69 69 69 68 67 66 65 62 60 61 61 63 63 62 63 65 65 66 64 65 64 63 61 66 66 66 66 64 64 64 63 63 62 61 61 62 62 63 63
63 65 67 67 67 67 68 67 67 68 69 70 70 68 69 70 69 70 70 70 69 69 70 69 70 70 69 70 70 69 69 69 70 69 70 70 69 69 69 68 68 68 66 69 68 68 68 68 67 67 66 66 64 64 63 62 63 63 62 62 62 65 65 65 64 63 64 65 65 66 67 66 66 64 64 63 63 63 62 61 61 62 62 62 62
65 65 66 65 67 67 66 68 68 68 69 70 69 69 70 69 69 70 70 69 69 69 70 70 70 70 70 70 69 69 68 68 70 70 71 70 69 69 69 69 69 69 65 69 69 69 69 68 66 65 65 66 65 64 64 63 62 62 61 63 62 62 65 64 64 64 65 65 67 66 67 66 66 65 63 63 63 63 62 61 61 61 62 62 62
64 65 66 66 66 66 66 66 66 68 68 68 68 69 69 69 69 69 68 68 69 68 69 69 69 69 69 69 69 68 67 68 68 69 70 69 69 69 69 70 69 70 70 69 69 69 70 69 68 66 65 65 63 62 62 62 63 60 61 60 62 61 63 64 64 64 65 65 66 66 67 67 67 65 64 63 63 63 62 61 61 61 61 61 62
65 66 67 66 66 66 67 65 67 68 68 68 68 67 68 68 69 68 68 68 68 68 68 68 69 68 69 68 68 67 67 67 67 68 69 69 69 69 69 69 69 69 69 68 69 69 68 68 67 66 64 63 62 62 61 60 61 62 60 61 62 62 63 63 65 66 65 66 65 66 67 68 68 67 64 63 63 63 62 61 61 61 61 61 62
65 66 67 65 67 67 67 66 66 66 68 68 66 66 67 68 68 67 68 68 67 68 68 68 68 68 68 68 68 68 67 68 67 68 68 69 68 68 69 69 68 68 68 68 68 67 66 65 65 64 65 64 63 63 60 58 60 61 59 59 60 60 61 63 65 64 64 64 66 65 67 68 68 68 65 63 62 62 61 60 61 61 60 60 60
65 65 66 66 67 66 65 66 66 66 66 66 67 67 67 68 66 67 68 68 68 68 68 69 68 68 68 68 69 68 68 68 68 67 68 68 67 68 68 67 67 68 68 67 68 67 65 64 64 64 62 63 62 62 61 59 56 60 58 58 59 59 61 61 63 63 64 65 66 66 67 68 68 67 68 65 63 62 62 60 60 61 61 61 59
65 65 65 64 65 65 65 65 65 67 66 65 66 66 67 66 65 67 67 67 67 68 68 68 68 69 69 69 68 67 68 67 68 67 68 68 68 67 68 68 67 68 68 68 67 66 66 65 64 64 63 62 61 62 59 59 58 57 59 56 57 59 60 62 62 63 63 65 65 66 65 68 68 67 67 67 66 63 62 61 60 60 60 60 61
64 63 64 66 66 65 64 66 67 67 67 65 66 65 66 65 66 66 67 67 68 68 68 68 69 69 69 69 67 66 66 65 66 67 67 67 68 67 66 67 67 67 67 67 67 66 65 64 64 65 65 64 63 63 61 60 58 57 58 57 57 59 59 62 62 63 63 65 64 66 66 66 68 67 67 67 67 66 63 62 62 60 60 61 60
65 65 65 66 65 66 66 66 66 67 66 66 65 66 67 66 66 67 66 67 68 68 68 68 68 67 66 65 65 65 66 65 66 65 65 65 66 66 65 66 66 67 67 67 67 67 66 65 65 65 64 63 63 60 58 62 60 60 61 58 59 57 58 60 63 64 63 64 64 64 65 65 66 68 67 67 66 66 66 66 63 62 60 60 59
63 65 65 66 67 67 68 67 67 66 67 66 67 66 67 67 67 67 67 67 67 68 68 68 66 65 65 65 66 65 65 65 65 65 65 64 64 64 65 65 65 65 66 66 65 65 65 65 64 64 62 62 61 60 59 60 59 59 60 59 60 62 61 59 63 64 65 64 64 65 64 63 64 65 65 67 67 66 66 66 64 63 62 61 61
63 63 64 65 67 67 68 67 68 68 67 67 66 66 67 67 67 67 67 67 67 67 68 68 66 65 65 65 65 66 65 65 64 65 65 64 64 64 65 65 65 65 65 65 65 65 65 64 64 64 63 63 59 59 59 60 59 58 61 62 58 58 62 61 63 63 63 65 66 65 65 64 63 63 63 63 67 66 65 66 65 66 64 63 62
63 63 64 65 66 67 68 67 67 68 68 68 68 68 68 68 67 67 67 67 67 66 67 66 66 66 65 65 65 66 65 64 64 65 65 65 65 65 66 66 65 65 66 66 65 64 64 64 64 64 61 58 58 59 60 60 61 60 61 62 62 62 61 61 63 61 62 64 63 66 65 65 64 63 64 63 65 65 66 66 66 66 67 64 63
64 64 65 66 66 66 68 68 68 68 68 68 68 67 67 67 67 67 66 67 66 66 66 66 66 66 66 66 66 65 65 65 65 65 65 65 65 65 65 65 65 65 65 65 65 65 65 63 64 64 63 62 58 57 59 61 61 61 61 61 61 62 62 62 62 63 61 64 64 63 64 64 65 65 65 65 65 64 66 66 66 66 66 66 65
64 65 65 66 66 66 68 68 67 67 68 67 67 66 66 66 66 66 66 65 65 66 66 66 65 65 65 65 65 65 65 65 65 64 65 65 65 65 65 65 64 64 64 65 65 65 64 65 64 63 63 62 62 60 60 61 59 59 62 62 62 61 61 62 62 63 63 61 63 63 63 64 64 63 64 65 64 65 64 65 66 66 66 65 65
63 64 65 66 66 66 68 68 67 67 67 67 66 65 65 65 65 65 65 65 64 65 65 65 65 65 64 65 64 64 64 64 64 64 64 65 64 64 64 64 65 64 64 64 65 64 64 64 63 62 63 63 63 63 63 62 62 62 61 62 62 61 61 62 63 62 63 63 62 62 61 64 64 65 65 65 65 65 65 66 64 64 64 65 66
63 64 64 64 66 67 68 67 67 67 66 65 65 64 65 64 64 64 63 63 64 64 64 64 64 63 64 64 64 64 63 64 63 64 64 64 64 64 64 64 64 64 64 63 64 64 64 62 63 62 62 62 62 62 62 64 64 62 63 63 63 62 60 60 62 61 62 63 63 63 62 61 63 64 64 64 64 63 65 65 66 64 64 65 66
62 62 63 63 65 65 67 67 67 67 65 65 64 64 63 63 64 64 63 62 61 63 63 64 64 64 64 63 63 63 63 63 63 63 63 63 63 63 63 64 64 63 63 63 63 63 63 64 63 62 62 62 61 62 62 63 62 60 62 61 63 62 63 63 60 60 60 62 63 62 62 62 62 63 64 64 63 63 63 64 65 64 64 63 66
61 61 62 63 65 66 66 66 66 67 66 66 65 64 64 63 62 61 62 62 61 61 61 63 64 64 64 63 64 63 63 64 63 63 63 63 63 63 63 63 63 63 63 63 63 63 63 63 62 62 62 61 61 63 62 63 59 57 58 58 58 61 61 62 60 59 60 59 61 62 62 62 61 62 64 63 62 62 62 63 65 65 64 64 63
61 61 62 64 65 65 66 65 65 65 65 65 64 63 62 63 63 62 61 58 58 61 60 61 61 61 63 63 64 64 64 63 63 63 63 63 63 63 63 63 63 63 63 63 63 63 63 62 62 62 61 62 61 62 63 63 61 61 61 59 56 54 59 60 61 61 62 62 61 60 59 61 62 61 63 63 62 62 62 65 63 63 64 64 64
61 61 62 63 64 64 65 64 65 65 64 64 63 62 62 61 62 61 60 60 58 59 60 59 59 59 58 59 60 62 64 64 62 62 63 63 63 63 63 63 63 63 63 63 62 62 63 62 62 63 62 61 60 61 62 62 62 61 57 57 57 56 53 57 59 61 61 61 62 60 60 59 61 61 64 62 63 63 64 63 63 63 64 64 64
61 61 61 62 62 64 64 64 63 63 63 62 62 61 60 60 59 60 59 58 59 58 58 57 59 58 57 58 58 59 60 62 63 63 62 63 63 63 63 63 62 63 62 62 62 62 62 63 63 62 62 61 60 61 62 62 60 61 60 57 56 54 54 57 58 60 60 59 60 59 61 59 61 64 65 64 64 64 63 62 62 62 63 64 63
61 62 62 61 62 62 62 62 62 62 62 62 62 61 60 59 59 58 57 57 56 57 55 56 56 57 55 57 56 57 58 61 62 64 63 63 62 62 62 62 62 63 62 62 61 61 61 62 62 63 62 62 62 60 60 62 62 62 61 60 59 56 57 58 57 56 60 59 59 59 60 61 63 62 61 62 64 65 65 64 64 64 64 65 65
61 61 60 60 61 61 61 61 61 61 61 61 61 61 60 60 62 61 59 58 56 56 58 59 58 55 57 57 56 59 58 61 63 63 64 64 63 62 62 63 63 63 62 62 61 62 61 60 60 62 62 61 61 60 59 60 61 61 61 61 60 61 60 59 56 58 56 55 55 57 55 55 58 59 59 60 61 62 62 63 63 62 64 65 65
61 59 60 60 60 60 60 60 60 60 60 61 61 61 60 60 60 60 59 58 57 56 58 58 58 56 56 56 57 57 58 60 62 61 62 63 63 63 64 64 62 61 61 61 61 61 61 61 61 61 61 61 61 61 60 60 59 60 61 61 60 60 60 60 60 57 55 53 50 53 53 55 55 56 58 61 63 63 64 64 62 64 67 65 65
60 60 59 60 61 60 59 59 59 59 60 60 60 60 60 60 60 59 58 58 58 57 57 57 55 56 56 56 57 56 57 59 58 60 60 61 61 62 63 62 62 61 60 60 61 60 61 62 61 61 60 61 62 61 60 60 59 59 59 59 59 58 58 58 59 59 55 52 50 51 51 52 51 51 52 55 58 60 60 61 62 63 64 65 64
62 61 61 62 61 59 58 58 58 58 59 59 59 58 59 59 59 60 59 58 58 57 56 56 56 56 55 56 57 57 57 58 58 58 58 58 60 60 60 61 62 61 59 60 60 61 62 61 62 62 62 61 61 61 60 60 60 60 60 59 57 57 57 56 56 55 55 53 48 46 49 48 47 47 50 50 50 52 53 55 56 55 56 57 58
62 62 61 61 60 60 59 57 57 56 57 57 58 58 58 59 59 60 60 59 58 57 56 56 55 56 54 55 56 56 57 57 57 58 58 58 59 59 60 60 61 60 57 57 60 59 60 60 60 61 61 61 60 60 59 60 59 59 58 58 58 57 56 54 53 51 49 49 46 46 46 43 43 47 48 47 46 44 43 46 46 47 48 49 50